Preview of NWS' New Version of Forecast
This preview is not operational and should not be used for support decisions.

Regional Weather Roundup (RWR)

Issued by National Weather Service (NWS)

                            
000
ASUS43 KMKX 182359
RWRWI 

WISCONSIN REGIONAL WEATHER ROUNDUP
NATIONAL WEATHER SERVICE MILWAUKEE/SULLIVAN WI
700 PM CDT THU APR 18 2019

NOTE: "FAIR" INDICATES FEW OR NO CLOUDS BELOW 12,000 FEET WITH NO
SIGNIFICANT WEATHER AND/OR OBSTRUCTIONS TO VISIBILITY.

WIZ001-002-006>008-014>016-023>028-190100-
NORTHWEST WISCONSIN
  
CITY           SKY/WX    TMP DP  RH WIND       PRES   REMARKS
SUPERIOR ARPT  MOCLDY    45  37  75 E5        29.92R                  
6HR MIN TEMP:  44; 6HR MAX TEMP:  52; 6HR PCP:  0.01;                

ASHLAND        CLOUDY    47  40  76 N5        29.91R                  
6HR MIN TEMP:  43; 6HR MAX TEMP:  48; 6HR PCP: TRACE;                

HAYWARD        MOCLDY    49  39  68 N3        29.90R                  
6HR MIN TEMP:  41; 6HR MAX TEMP:  49; 6HR PCP: TRACE;                

SIREN          FAIR      50  37  59 N10       29.91R                  
CUMBERLAND     MOCLDY    45  36  70 N9        29.90R                  
RICE LAKE      MOCLDY    48  38  68 N10       29.91R                  
6HR MIN TEMP:  43; 6HR MAX TEMP:  49;                                

CHETEK         MOCLDY    45  37  75 N7        29.90R                  
6HR MIN TEMP:  42; 6HR MAX TEMP:  48;                                

LADYSMITH      MOCLDY    45  39  77 N12G17    29.90R                  
6HR MIN TEMP:  39; 6HR MAX TEMP:  46;                                

EAU CLAIRE     NOT AVBL                                               
MENOMONIE      FAIR      46  34  62 N14       29.89R                  
6HR MIN TEMP:  41; 6HR MAX TEMP:  47;                                

NEW RICHMOND   FAIR      48  38  66 N8        29.91R                  
6HR MIN TEMP:  46; 6HR MAX TEMP:  53; 6HR PCP:  0.01;                

OSCEOLA        FAIR      51  40  68 N8        29.94R                  
$$
 
WIZ003>005-009-010-017-018-190100-
NORTH CENTRAL WISCONSIN
  
CITY           SKY/WX    TMP DP  RH WIND       PRES   REMARKS
MANITOWISH WTR CLOUDY    37  37 100 N5        29.86R WCI  34          
6HR MIN TEMP:  36; 6HR MAX TEMP:  38;                                

ARBOR VITAE    DRIZZLE   39  37  92 N9        29.85R WCI  33          
6HR MIN TEMP:  39; 6HR MAX TEMP:  42;                                

WOODRUFF       DRIZZLE   39  37  92 N9        29.85R WCI  33          
6HR MIN TEMP:  39; 6HR MAX TEMP:  42;                                

RHINELANDER    LGT RAIN  41  35  79 N7        29.84R                  
6HR MIN TEMP:  40; 6HR MAX TEMP:  42; 6HR PCP: TRACE;                

EAGLE RIVER    CLOUDY    39  37  92 N8        29.83R WCI  33          
6HR MIN TEMP:  38; 6HR MAX TEMP:  39;                                

LAND O LAKES   CLOUDY    39  36  89 N12G17    29.85R WCI  32          
6HR MIN TEMP:  37; 6HR MAX TEMP:  39;                                

PHILLIPS       CLOUDY    40  39  96 N8        29.87R WCI  35          
6HR MIN TEMP:  37; 6HR MAX TEMP:  40;                                

TOMAHAWK       CLOUDY    39  35  86 NW6       29.84R WCI  34          
MEDFORD        CLOUDY    38  36  92 N7        29.86R WCI  33          
6HR MIN TEMP:  37; 6HR MAX TEMP:  38;                                

MERRILL        CLOUDY    40  37  87 N9        29.85R WCI  34          
6HR MIN TEMP:  39; 6HR MAX TEMP:  42;                                

$$
 
WIZ029-030-035-036-043>047-190100-
CENTRAL WISCONSIN
  
CITY           SKY/WX    TMP DP  RH WIND       PRES   REMARKS
WAUSAU         CLOUDY    40  35  83 N8        29.83R WCI  34          
6HR MIN TEMP:  40; 6HR MAX TEMP:  43; 6HR PCP: TRACE;                

MOSINEE        NOT AVBL                                               
MARSHFIELD     CLOUDY    41  37  86 N13       29.85R                  
6HR MIN TEMP:  40; 6HR MAX TEMP:  42; 6HR PCP: TRACE;                

STEVENS POINT  LGT RAIN  40  35  83 NW10      29.84R WCI  33          
6HR MIN TEMP:  39; 6HR MAX TEMP:  42;                                

WAUPACA        CLOUDY    46  37  71 N6        29.82R                  
6HR MIN TEMP:  45; 6HR MAX TEMP:  47;                                

WAUTOMA        CLOUDY    43  36  76 N13       29.82R                  
6HR MIN TEMP:  42; 6HR MAX TEMP:  44;                                

WISC RAPIDS    CLOUDY    42  33  70 N14       29.84R                  
6HR MIN TEMP:  42; 6HR MAX TEMP:  44;                                

CAMP DOUGLAS   NOT AVBL                                               
$$
 
WIZ011>013-019>022-031-037>040-048>050-190100-
NORTHEAST WISCONSIN
  
CITY           SKY/WX    TMP DP  RH WIND       PRES   REMARKS
ANTIGO         DRIZZLE   38  37  96 N14       29.81R WCI  29          
SHAWANO        DRIZZLE   45  37  73 N9        29.80R                  
6HR MIN TEMP:  44; 6HR MAX TEMP:  47;                                

OCONTO         CLOUDY    41  38  89 NW6       29.79R                  
6HR MIN TEMP:  40; 6HR MAX TEMP:  44;                                

STURGEON BAY   CLOUDY    40  37  89 NW12      29.77R WCI  33          
6HR MIN TEMP:  40; 6HR MAX TEMP:  42; 6HR PCP: TRACE;                

GREEN BAY      CLOUDY    44  37  76 N16       29.79R                  
6HR MIN TEMP:  44; 6HR MAX TEMP:  47;                                

MANITOWOC      CLOUDY    42  38  85 NW12      29.77R                  
6HR MIN TEMP:  42; 6HR MAX TEMP:  44; 6HR PCP: TRACE;                

APPLETON       CLOUDY    43  34  70 N12       29.77R                  
CLINTONVILLE   CLOUDY    43  36  75 N7        29.82R                  
6HR MIN TEMP:  43; 6HR MAX TEMP:  45;                                

OSHKOSH        CLOUDY    44  37  76 N14       29.78R                  
6HR MIN TEMP:  42; 6HR MAX TEMP:  45; 6HR PCP: TRACE;                

$$
 
WIZ032>034-041-042-053>061-190100-
SOUTHWEST WISCONSIN
  
CITY           SKY/WX    TMP DP  RH WIND       PRES   REMARKS
LA CROSSE      CLOUDY    50  35  56 N13       29.88R                  
6HR MIN TEMP:  47; 6HR MAX TEMP:  50;                                

SPARTA         CLOUDY    44  37  76 N10       29.87                   
VIROQUA        CLOUDY    44  38  80 N14G21    29.85R                  
6HR MIN TEMP:  41; 6HR MAX TEMP:  45;                                

BOSCOBEL       CLOUDY    48  35  60 N9G22     29.86R                  
6HR MIN TEMP:  45; 6HR MAX TEMP:  50;                                

PRAIRIE DU CHI CLOUDY    48  34  58 N10G18    29.86R                  
6HR MIN TEMP:  45; 6HR MAX TEMP:  49;                                

PLATTEVILLE    CLOUDY    46  38  76 N13G20    29.82R                  
$$

WIZ056-057-062-063-064-067-068-190100-
SOUTH CENTRAL WISCONSIN
  
CITY           SKY/WX    TMP DP  RH WIND       PRES   REMARKS
REEDSBURG      CLOUDY    43  36  75 N12       29.83R                  
6HR MIN TEMP:  41; 6HR MAX TEMP:  44;                                

BARABOO/DELLS  CLOUDY    43  35  72 N12G21    29.82R                  
6HR MIN TEMP:  42; 6HR MAX TEMP:  44;                                

LONE ROCK      NOT AVBL                                               
MINERAL POINT  CLOUDY    45  37  76 N12       29.81S                  
MADISON        DRIZZLE   44  36  73 N12G23    29.79R                  
6HR MIN TEMP:  43; 6HR MAX TEMP:  45; 6HR PCP: TRACE;                

MIDDLETON      CLOUDY    45  38  76 N15G23    29.80S                  
WATERTOWN      CLOUDY    44  39  83 NW8       29.78R                  
6HR MIN TEMP:  42; 6HR MAX TEMP:  45;                                

MONROE         CLOUDY    44  35  72 MISG      29.80R                  
6HR MIN TEMP:  43; 6HR MAX TEMP:  46;                                

JANESVILLE     CLOUDY    46  37  71 N12G17    29.78R                  
$$
 
WIZ051-052-058>065-066-070>072-190100-
SOUTHEAST WISCONSIN
  
CITY           SKY/WX    TMP DP  RH WIND       PRES   REMARKS
MILWAUKEE      CLOUDY    46  36  68 N13G21    29.75R                  
6HR MIN TEMP:  45; 6HR MAX TEMP:  47;                                

WAUKESHA       CLOUDY    41  37  87 NW7       29.78R                  
MILWAUKEE/TIMM CLOUDY    43  36  75 NW16      29.77R                  
RACINE         CLOUDY    45  37  73 NW9       29.77R                  
6HR MIN TEMP:  43; 6HR MAX TEMP:  48;                                

KENOSHA        CLOUDY    45  39  79 NW8       29.75R                  
6HR MIN TEMP:  45; 6HR MAX TEMP:  48;                                

FOND DU LAC    CLOUDY    43  39  86 N12       29.78R                  
6HR MIN TEMP:  42; 6HR MAX TEMP:  44; 6HR PCP: TRACE;                

SHEBOYGAN      LGT RAIN  43  39  86 N12       29.76R FOG              
6HR MIN TEMP:  43; 6HR MAX TEMP:  44; 6HR PCP:  0.02;                

WEST BEND      CLOUDY    43  39  87 NW12      29.77R                  
JUNEAU         CLOUDY    42  38  85 N8        29.79R                  
6HR MIN TEMP:  41; 6HR MAX TEMP:  43;                                

$$

LSZ147-162-190100-
LAKE SUPERIOR
  
STATION/POSITION TIME  TEMP    WIND        PRES    WAVE
                       AIR SEA DIR/SP/G            HT/PER
                 (UTC) (F)     (DEG/KT/KT) (MB)    (FT/S)
$$
 
LMZ867-665-643>646-190100-
LAKE MICHIGAN
  
STATION/POSITION TIME  TEMP    WIND        PRES    WAVE
                       AIR SEA DIR/SP/G            HT/PER
                 (UTC) (F)     (DEG/KT/KT) (MB)    (FT/S)
NORTHPORT PIER   2340   38     300/  6/  8 1007.1R
KEWAUNEE LAKESHO 2324   43     330/  7/ 19 1006.8
SHEBOYGAN LAKESH 2300   43     320/ 12/ 14 1007.4R
MILWAUKEE LAKESH 2330   45                   N/A
KENOSHA   LAKESH 2300   45     320/ 15/ 20 1007.1
$$

TC  - TEMPERATURE IN CELSIUS
VSB - VISIBILITY IN STATUTE MILES
WCI - WIND CHILL INDEX
HX  - HEAT INDEX